This is the latest recevied weather packets stored in our database for station/object DB0ADS-6. If no packets are shown the sender has not sent any weather packets the latest 1 day(s).
| Time | Temp. | Humidity | Pressure | Rain* | Wind** | Luminosity | Snow |
|---|---|---|---|---|---|---|---|
| 1778011818 | 11.67° C | 95% | 1005.1 hPa | 0 mm | 0.45 m/s, 293° | - | - |
| 1778011536 | 12.22° C | 94% | 1005.1 hPa | 0 mm | 0.45 m/s, 296° | - | - |
| 1778011274 | 12.22° C | 94% | 1005.1 hPa | 0 mm | 0 m/s | - | - |
| 1778010972 | 12.22° C | 94% | 1005 hPa | 0 mm | 0.89 m/s, 315° | - | - |
| 1778010671 | 12.22° C | 94% | 1005.1 hPa | 0 mm | 0.45 m/s, 315° | - | - |
| 1778010371 | 12.22° C | 94% | 1005.1 hPa | 0 mm | 0.45 m/s, 315° | - | - |
| 1778010088 | 12.22° C | 94% | 1005 hPa | 0 mm | 0.45 m/s, 313° | - | - |
| 1778009766 | 12.22° C | 93% | 1005 hPa | 0 mm | 1.34 m/s, 306° | - | - |
| 1778009464 | 12.22° C | 94% | 1005 hPa | 0 mm | 0.89 m/s, 315° | - | - |
| 1778009162 | 12.22° C | 93% | 1005 hPa | 0 mm | 1.34 m/s, 318° | - | - |
| 1778008860 | 12.22° C | 93% | 1004.8 hPa | 0 mm | 1.34 m/s, 323° | - | - |
| 1778008558 | 12.22° C | 93% | 1004.9 hPa | 0 mm | 0.89 m/s, 315° | - | - |
| 1778008257 | 12.22° C | 93% | 1005.1 hPa | 0 mm | 1.34 m/s, 301° | - | - |
| 1778007955 | 12.22° C | 94% | 1005.2 hPa | 0 mm | 0.45 m/s, 295° | - | - |
| 1778007653 | 12.22° C | 94% | 1005.2 hPa | 0 mm | 0.89 m/s, 289° | - | - |
| 1778007351 | 12.22° C | 93% | 1005.1 hPa | 0 mm | 0.89 m/s, 315° | - | - |
| 1778007050 | 12.22° C | 94% | 1005 hPa | 0 mm | 0.45 m/s, 308° | - | - |
| 1778006750 | 12.22° C | 94% | 1005 hPa | 0 mm | 0.45 m/s, 270° | - | - |
| 1778006445 | 12.22° C | 94% | 1005 hPa | 0 mm | 0.45 m/s, 263° | - | - |
| 1778006143 | 12.22° C | 94% | 1005 hPa | 0 mm | 0.45 m/s, 252° | - | - |
| 1778005857 | 12.22° C | 93% | 1005 hPa | 0 mm | 0.89 m/s, 278° | - | - |
| 1778005540 | 12.22° C | 93% | 1004.9 hPa | 0 mm | 0.45 m/s, 315° | - | - |
| 1778005238 | 12.78° C | 93% | 1004.9 hPa | 0 mm | 0.45 m/s, 310° | - | - |
| 1778004936 | 12.78° C | 92% | 1004.9 hPa | 0 mm | 0.89 m/s, 319° | - | - |
| 1778004634 | 12.78° C | 93% | 1004.8 hPa | 0 mm | 0.89 m/s, 315° | - | - |
* Rain latest hour (hover to see other rain measurements)
** Current wind speed in m/s (hover to see current wind gust speed)